TimeMDT,TemperatureF,Dew PointF,Humidity,Sea Level PressureIn,VisibilityMPH,Wind Direction,Wind SpeedMPH,Gust SpeedMPH,PrecipitationIn,Events,Conditions,WindDirDegrees,DateUTC
12:53 AM,59.0,48.0,67,29.97,10.0,West,6.9,-,N/A,,Clear,260,2013-08-19 06:53:00
1:53 AM,57.9,50.0,75,29.96,10.0,Calm,Calm,-,N/A,,Clear,0,2013-08-19 07:53:00
2:53 AM,55.9,48.0,75,29.95,10.0,West,5.8,-,N/A,,Clear,260,2013-08-19 08:53:00
3:53 AM,59.0,46.0,62,29.96,10.0,WNW,9.2,-,N/A,,Clear,290,2013-08-19 09:53:00
4:53 AM,55.9,45.0,67,29.96,10.0,West,5.8,-,N/A,,Clear,260,2013-08-19 10:53:00
5:53 AM,57.0,45.0,64,29.95,10.0,WNW,5.8,-,N/A,,Clear,290,2013-08-19 11:53:00
6:53 AM,59.0,45.0,60,29.96,10.0,WNW,4.6,-,N/A,,Clear,290,2013-08-19 12:53:00
7:53 AM,69.1,45.0,42,29.95,10.0,WNW,8.1,-,N/A,,Clear,290,2013-08-19 13:53:00
8:53 AM,78.1,44.1,30,29.94,10.0,West,10.4,-,N/A,,Clear,280,2013-08-19 14:53:00
9:53 AM,84.0,37.9,19,29.91,10.0,NNE,12.7,-,N/A,,Clear,20,2013-08-19 15:53:00
10:53 AM,86.0,39.9,20,29.92,10.0,NNE,10.4,-,N/A,,Clear,30,2013-08-19 16:53:00
11:53 AM,88.0,39.9,18,29.92,10.0,ENE,11.5,-,N/A,,Scattered Clouds,70,2013-08-19 17:53:00
12:53 PM,89.1,37.9,16,29.92,10.0,ESE,5.8,-,N/A,,Scattered Clouds,120,2013-08-19 18:53:00
1:53 PM,87.1,37.9,18,29.91,10.0,NE,9.2,-,N/A,,Scattered Clouds,40,2013-08-19 19:53:00
2:22 PM,89.6,39.2,17,30.19,10.0,SE,13.8,-,N/A,,Clear,140,2013-08-19 20:22:00
2:53 PM,88.0,41.0,19,29.91,10.0,SSE,10.4,-,N/A,,Clear,160,2013-08-19 20:53:00
3:53 PM,86.0,39.0,19,29.89,10.0,SE,10.4,-,N/A,,Clear,140,2013-08-19 21:53:00
4:53 PM,88.0,39.0,18,29.88,10.0,SSW,10.4,-,N/A,,Clear,200,2013-08-19 22:53:00
5:53 PM,87.1,39.0,18,29.87,10.0,South,9.2,-,N/A,,Clear,170,2013-08-19 23:53:00
6:53 PM,84.0,39.9,21,29.86,10.0,South,6.9,-,N/A,,Clear,170,2013-08-20 00:53:00
7:53 PM,79.0,41.0,26,29.85,10.0,South,8.1,-,N/A,,Clear,170,2013-08-20 01:53:00
8:53 PM,75.9,39.9,27,29.85,10.0,South,9.2,-,N/A,,Clear,190,2013-08-20 02:53:00
9:53 PM,75.0,42.1,31,29.84,10.0,South,11.5,-,N/A,,Clear,180,2013-08-20 03:53:00
10:53 PM,75.0,42.1,31,29.83,10.0,South,11.5,19.6,N/A,,Clear,190,2013-08-20 04:53:00
11:53 PM,71.1,44.1,38,29.83,10.0,SW,6.9,-,N/A,,Clear,220,2013-08-20 05:53:00